Miscellaneous Local Product
Issued by NWS North Platte, NE

Home | Current Version | Previous Version | Text Only | Print | Product List | Glossary On
Versions: 1 2 3 4 5 6 7 8 9 10 11 12 13 14 15 16 17 18 19 20 21 22 23 24 25 26 27 28 29 30 31 32 33 34 35 36 37 38 39 40 41 42 43 44 45 46 47 48 49 50
736
AXUS43 KLBF 041410
MISLBF


WESTERN AND NORTH CENTRAL NEBRASKA HOURLY WEATHER ROUNDUP
NATIONAL WEATHER SERVICE NORTH PLATTE NE
800 AM CST SUN DEC 04 2016

NOTE: "FAIR" INDICATES FEW OR NO CLOUDS BELOW 12,000 FEET WITH NO
SIGNIFICANT WEATHER AND/OR OBSTRUCTIONS TO VISIBILITY.

NOTE: STATIONS NOT REPORTING VARIABLES SUCH AS SKY/WEATHER OR
PRESSURE ARE PROVIDED BY RAWS AND APRS NETWORKS AND ARE NOT UNDER
NATIONAL WEATHER SERVICE QUALITY CONTROL.

...OBSERVATIONS IN AND NEAR THE EASTERN PANHANDLE OF NEBRASKA...

CITY           SKY/WX    TMP DP  RH WIND       PRES   REMARKS
PINE RIDGE     CLOUDY    27  17  66 W7        29.94S WCI  19
CHADRON        CLEAR     21  12  68 SW6       29.97R WCI  13
ALLIANCE       CLEAR     17  12  80 W9        29.97R WCI   6
SIDNEY         CLEAR     23  13  65 W12       30.00R WCI  12
CRESCENT LAKE    N/A     22  14  70 W8          N/A  WCI  13
$$

...OBSERVATIONS IN NORTHERN NEBRASKA AND FAR SOUTHERN SOUTH DAKOTA...

CITY           SKY/WX    TMP DP  RH WIND       PRES   REMARKS
WINNER         FAIR      32  24  72 W10       29.90R WCI  24
VALENTINE      CLEAR     20  16  84 SW7       29.92R WCI  11
THEDFORD       CLEAR     25  19  79 W7        29.95S WCI  17
AINSWORTH      PTCLDY    25  22  86 W6        29.91S WCI  18
O`NEILL        CLEAR     28  23  84 W8        29.92S WCI  19
ORD            CLEAR     20  17  88 CALM      29.95S
BROKEN BOW     CLEAR     32  21  64 W9        29.95R WCI  24
VALENTINE NWR    N/A     27  19  71 W6          N/A  WCI  21
BUTTE            N/A     28  24  83 SW6         N/A  WCI  22
HALSEY           N/A     27  18  68 W8          N/A  WCI  19
CHAMBERS         N/A     25  21  83 CALM        N/A
EWING            N/A     24  22  90 CALM        N/A
$$

...OBSERVATIONS IN SOUTHWEST NEBRASKA AND FAR NORTHEAST COLORADO...

CITY           SKY/WX    TMP DP  RH WIND       PRES   REMARKS
WRAY           FAIR      16  12  86 W6        30.04R WCI   7
HOLYOKE        FAIR      19  12  73 W9        30.02S WCI   9
IMPERIAL       CLEAR     23  14  68 W10       30.01S WCI  12
OGALLALA       CLEAR     32  19  57 NW14      29.99F WCI  22
NORTH PLATTE   CLEAR     19  15  84 W6        29.99R WCI  11
MCCOOK         CLEAR     22  16  78 W12       30.02R WCI  10
LEXINGTON      CLEAR     23  20  86 W8        29.99R WCI  14
STAPLETON        N/A     24  19  81 CALM        N/A
GOTHENBURG       N/A     24  18  78 W3          N/A
CALLAWAY         N/A     26  21  82 W12         N/A  WCI  16
$$

...OBSERVATIONS IN CENTRAL LINCOLN COUNTY AREA...

CITY           SKY/WX    TMP DP  RH WIND       PRES   REMARKS
N.P. AIRPORT   CLEAR     19  15  84 W6        29.99R WCI  11
N.P. DOWNTOWN    N/A     26  20  77 CALM        N/A
N.P. SOUTHEAST   N/A     27  19  72 CALM        N/A
N.P. HILLCREST   N/A     24  19  82 NW5         N/A  WCI  18
$$

...SOME OBSERVATIONS FROM AROUND THE REGION...

CITY           SKY/WX    TMP DP  RH WIND       PRES   REMARKS
LARAMIE        CLOUDY    19   7  59 SW18      29.94F WCI   4
CHEYENNE       CLOUDY    25   7  46 SW13      29.95S WCI  14
DENVER         CLOUDY    17   6  62 S10       30.00R WCI   5
AKRON          CLOUDY    19   9  65 W12       30.02R WCI   7
SCOTTSBLUFF    CLEAR     14   8  77 N7        29.99F WCI   4
RAPID CITY     MOCLDY    26  17  68 SW5       29.88S WCI  20
BISMARCK       CLOUDY    32  29  88 W7        29.76S WCI  26
PIERRE         PTCLDY    26  22  84 W9        29.86S WCI  17
SIOUX FALLS    CLOUDY    31  31 100 SW5       29.88R FOG     WCI  26
OMAHA          CLOUDY    34  30  85 SW5       29.98F WCI  30
GRAND ISLAND   CLEAR     28  27  96 W9        29.98R WCI  19
KANSAS CITY    LGT RAIN  37  34  89 SW6       30.00S WCI  32
WICHITA        PTCLDY    37  36  96 W3        30.04R
OKLAHOMA CITY  CLOUDY    44  42  93 N7        30.04R
DALLAS         CLOUDY    48  45  89 N10       30.02R
AMARILLO       CLOUDY    32  31  96 N12       30.10R WCI  23
DODGE CITY     CLEAR     26  21  81 NW9       30.06R WCI  17
HAYS           CLEAR     26  25  96 W9        30.05R WCI  17
GOODLAND       CLEAR     20  11  68 W10       30.04R WCI   9
$$




USA.gov is the U.S. government's official web portal to all federal, state and local government web resources and services.